Theta_e
300 300 305 309 310 309 309 309 310 310 312 312 308 306 305 300 296 294 306 311 312 316 320 322 323 325 324 326 328 330 331 331 331 331 331 332 333 334 335 334 334 333 332 333 333 335 337 338 338 342 345 346 347 348 349 350 351 351 352 350 349 349 349 348 348 349 349 349 350 351 353 351 351 350 350 350 350 350 351 352 352 351 351 352 352 352 353
300 303 307 309 308 308 307 307 309 311 312 311 311 312 313 312 309 313 314 315 314 318 320 323 325 327 327 327 329 330 330 330 330 330 331 332 333 334 333 334 336 337 335 335 335 337 338 337 337 338 341 345 346 347 347 349 350 351 351 350 349 348 348 348 349 348 348 349 348 348 349 349 349 349 349 349 349 348 350 351 351 351 350 351 351 351 352
296 299 305 308 308 307 305 307 308 311 313 313 314 314 313 315 314 316 316 314 313 320 324 323 324 325 326 326 326 327 328 329 330 330 330 331 332 333 334 334 335 337 337 337 337 337 337 338 339 339 339 340 343 346 345 346 347 348 350 349 348 347 347 348 348 347 347 347 347 346 347 347 347 347 346 347 348 347 347 349 349 350 350 348 349 351 352
294 297 299 303 302 305 305 304 305 308 311 310 313 312 315 310 308 310 314 312 312 320 324 324 324 324 323 323 325 326 327 329 329 329 330 331 331 332 334 335 335 336 336 336 336 337 338 339 338 338 338 339 341 341 341 342 342 342 344 344 347 347 347 348 347 347 346 346 346 345 345 345 346 345 345 344 344 345 346 346 348 348 348 348 348 349 351
292 296 299 298 298 300 300 301 303 305 311 313 314 316 319 317 316 312 309 311 318 322 325 323 323 324 324 324 325 325 327 328 328 328 328 329 331 332 331 334 335 335 336 337 338 338 339 339 339 340 340 339 338 339 340 342 343 342 342 343 344 345 346 346 346 346 345 345 345 345 344 345 345 346 345 345 346 345 344 346 347 347 346 347 347 347 347
291 296 298 298 293 290 292 304 310 310 309 311 310 310 314 318 319 315 318 317 321 323 323 323 323 324 325 326 328 330 328 327 326 327 328 329 331 332 333 334 334 335 336 338 340 340 340 341 342 343 343 341 342 343 342 342 341 342 343 343 345 345 343 344 344 345 344 344 342 341 342 343 344 343 344 344 342 343 346 348 347 347 346 345 346 345 345
294 295 296 293 287 287 299 306 311 314 311 312 311 312 315 317 320 320 319 320 321 323 324 325 325 325 326 328 328 329 331 331 329 328 330 330 331 331 331 332 334 335 336 338 339 339 339 340 340 341 341 342 342 342 342 339 339 339 340 338 338 338 338 339 339 341 342 342 341 340 341 343 343 342 341 340 341 342 341 344 346 347 346 344 344 345 344
296 293 290 285 286 298 305 305 309 311 310 310 309 309 311 314 318 319 319 322 323 323 323 324 325 325 326 327 328 329 330 331 330 329 329 330 330 331 332 332 332 332 335 337 338 338 340 339 340 341 340 341 341 340 341 340 340 339 338 338 339 339 340 342 340 338 339 339 341 341 341 342 344 343 342 342 341 342 342 341 345 346 344 343 343 339 337
291 292 291 293 299 300 300 302 304 304 301 302 303 300 306 311 316 319 318 321 323 323 323 324 324 324 324 322 324 329 329 330 331 331 330 331 331 332 333 333 332 333 334 335 336 336 336 338 338 339 340 341 340 340 339 339 339 338 337 337 338 340 341 343 343 341 341 341 340 341 342 341 343 343 342 341 341 343 340 343 345 345 342 340 337 334 335
295 294 292 293 290 286 293 300 306 309 310 310 309 303 301 309 314 320 318 317 319 322 321 320 319 320 317 315 319 327 330 331 331 332 333 333 332 331 332 332 333 333 333 334 336 335 335 335 336 337 339 339 338 336 336 336 337 337 337 338 339 340 340 344 344 343 343 342 340 339 339 340 341 343 345 346 344 345 340 342 345 344 345 342 338 337 333
291 292 290 287 285 290 294 300 305 308 310 311 310 299 295 305 311 318 317 316 316 316 316 316 315 312 311 314 319 326 327 329 331 330 331 331 331 331 331 331 330 330 331 333 334 334 333 332 333 335 336 336 334 332 333 334 334 334 336 338 339 340 342 344 344 343 342 341 339 337 337 338 340 339 341 344 344 343 341 341 342 342 341 339 338 335 334
292 288 285 288 291 294 300 303 307 310 310 311 301 290 290 300 312 318 318 317 315 315 315 316 314 312 311 315 321 327 325 328 329 329 328 328 328 328 329 330 330 330 331 331 330 330 330 331 334 334 334 334 333 331 331 332 332 332 333 334 336 339 341 343 343 343 342 343 341 339 338 338 340 341 343 342 341 341 341 342 341 342 343 340 338 336 336
294 296 290 291 295 302 304 306 310 310 312 301 291 285 293 305 313 317 317 317 317 317 317 317 315 318 320 323 324 325 327 326 324 323 324 324 325 325 325 326 329 327 327 327 326 327 328 330 331 332 332 331 330 331 330 330 330 331 332 334 336 337 339 341 341 342 341 341 340 340 340 339 340 342 341 341 341 341 341 342 341 340 338 336 335 334 335
290 288 289 290 292 298 306 309 310 310 303 292 289 299 306 313 316 317 319 319 321 321 320 321 321 322 323 323 323 323 323 321 319 320 321 322 322 324 327 328 326 324 324 324 325 326 327 329 330 330 330 329 328 328 327 326 327 329 330 331 332 333 334 336 337 339 339 339 340 340 342 342 340 339 339 341 341 341 341 339 337 336 335 334 332 333 335
290 289 287 286 286 298 309 309 307 308 298 295 300 311 315 318 316 317 318 320 322 323 320 321 320 320 319 319 319 320 319 318 317 317 318 318 319 320 321 322 325 324 322 323 324 325 326 327 328 329 329 327 327 327 326 327 329 329 329 328 328 329 330 331 334 335 336 338 338 339 339 339 337 336 338 340 340 341 340 338 335 331 329 329 330 332 333
289 284 283 285 294 301 309 306 300 308 306 309 310 316 313 317 316 316 317 318 319 320 319 318 317 317 317 316 317 316 316 316 315 316 317 318 320 321 322 322 323 324 322 323 323 324 325 326 325 326 326 325 326 325 324 328 330 330 328 327 327 328 329 327 328 330 333 335 334 335 336 335 334 333 334 337 340 340 340 338 332 329 329 330 330 331 328
292 289 291 298 301 305 309 310 310 310 312 313 313 317 316 317 316 316 317 317 318 318 318 317 317 316 316 316 316 315 314 314 314 315 316 318 318 319 319 321 324 322 322 322 322 322 323 324 325 325 324 324 325 324 326 330 327 327 329 330 328 325 323 324 327 328 329 329 331 332 333 335 334 333 333 334 333 334 335 332 331 329 330 333 331 330 328
303 304 304 307 307 308 309 311 312 312 313 314 316 318 316 316 317 317 318 318 319 319 318 318 315 316 315 316 316 316 315 315 315 315 314 315 317 318 319 319 322 321 321 321 320 320 320 321 322 324 322 323 323 322 326 328 325 327 329 330 330 329 328 326 326 330 329 329 330 331 331 332 332 332 332 332 331 330 331 332 332 331 332 331 330 328 326
292 293 303 305 307 308 308 309 312 312 312 312 313 315 314 316 318 319 320 320 319 319 318 318 316 315 315 315 314 313 313 313 312 312 312 313 315 316 317 319 320 319 319 318 318 318 318 319 321 322 322 322 322 322 324 323 324 325 327 326 327 325 325 326 327 330 328 325 324 325 324 324 324 326 327 327 329 331 329 328 329 332 333 332 331 329 323
292 295 303 306 308 309 310 308 309 310 312 313 315 315 317 318 319 319 319 320 320 320 319 317 317 316 315 316 313 314 313 313 313 312 311 311 313 315 316 317 317 316 315 315 316 317 317 316 318 320 320 319 318 320 322 322 322 324 328 326 320 320 323 326 328 329 331 334 326 320 320 320 319 320 320 322 322 321 321 322 325 329 333 333 330 327 319
301 304 306 306 307 308 309 310 310 309 310 312 313 316 318 319 320 321 322 321 320 320 319 319 318 317 315 315 315 315 313 312 313 312 311 312 313 315 316 317 317 315 316 317 316 317 316 316 317 318 318 318 320 321 321 320 322 327 329 329 325 320 321 322 324 328 323 321 319 316 313 311 310 309 310 312 316 318 318 316 317 322 326 327 328 322 318
296 299 303 305 300 298 305 309 310 310 311 312 312 313 314 316 317 319 321 321 322 322 321 321 320 318 314 315 316 315 314 313 312 312 312 312 313 315 316 317 317 318 319 317 317 317 315 316 318 318 318 319 320 322 321 320 321 325 326 324 321 321 322 321 323 322 321 319 318 317 314 313 312 311 308 302 304 312 312 314 307 303 312 321 321 318 316
298 302 307 305 304 304 305 309 311 311 312 312 312 311 311 311 312 314 318 319 319 320 320 321 321 319 318 317 318 317 316 315 313 312 314 315 314 314 315 316 314 316 317 320 319 318 316 318 319 319 318 318 319 321 320 319 320 321 322 322 319 319 325 322 324 323 318 316 315 314 314 313 314 314 312 309 297 298 305 306 301 297 299 303 308 312 320
303 306 309 307 308 307 308 310 310 310 312 313 311 311 311 312 312 313 314 316 318 316 319 320 321 320 319 318 320 318 317 317 316 315 314 314 314 315 314 314 315 316 316 316 317 318 316 318 318 317 318 317 317 319 319 319 319 320 321 320 318 318 320 323 324 321 316 319 318 316 314 313 313 314 312 312 313 303 297 299 298 296 295 295 296 298 302
304 308 310 309 309 310 311 311 310 311 312 313 312 311 312 312 313 314 313 313 315 316 315 316 318 318 319 317 317 317 317 318 321 322 323 322 320 317 316 315 315 316 316 316 314 312 315 316 316 317 316 317 317 318 318 319 319 319 320 320 316 316 320 325 325 325 322 320 319 318 317 316 315 313 311 312 311 311 311 299 296 295 295 294 294 294 295
310 310 310 310 311 311 310 309 309 311 312 314 313 314 317 320 315 313 312 312 312 313 313 314 315 316 318 318 316 315 318 320 326 323 320 320 319 318 315 315 315 316 316 317 317 315 314 315 314 314 316 316 316 317 319 319 318 318 318 318 316 317 319 321 321 322 321 321 319 318 318 316 315 314 315 314 312 312 312 312 313 307 300 295 295 296 293
311 313 312 310 309 308 309 309 306 309 310 312 314 313 313 314 318 313 312 312 311 311 310 311 313 314 315 317 322 317 317 320 320 317 318 320 321 320 321 321 320 319 320 319 319 320 321 319 317 315 315 316 315 318 317 317 316 316 316 316 316 327 330 328 317 318 317 318 317 317 318 320 320 321 319 318 317 316 313 314 314 312 313 313 301 295 302
312 313 315 309 306 308 308 309 310 309 309 311 311 309 306 307 308 309 308 307 306 306 308 310 312 312 311 312 314 315 316 316 315 315 316 317 318 319 320 321 321 320 320 320 319 322 324 319 317 316 313 312 313 316 316 315 315 315 316 315 315 315 319 323 319 317 317 316 315 316 316 317 320 323 324 323 321 319 317 318 317 314 312 310 312 307 297
310 309 309 310 312 310 308 308 307 306 305 307 309 306 304 304 303 305 305 305 305 304 305 306 309 310 310 309 311 312 313 313 312 312 312 315 317 319 318 317 317 318 316 317 316 318 315 314 313 313 313 312 313 316 316 314 313 314 318 314 313 313 314 315 316 316 315 315 315 317 323 321 317 319 324 324 324 322 320 320 319 316 312 312 311 313 311
309 308 309 309 308 307 308 306 304 303 305 305 305 303 303 304 304 303 304 303 304 305 305 304 305 306 307 309 310 310 312 311 310 310 311 314 314 315 315 314 315 314 314 314 313 314 313 313 312 312 314 313 315 315 316 315 314 313 315 315 313 313 313 316 316 315 314 314 319 325 320 319 317 318 320 318 320 323 321 322 321 318 313 312 315 312 311
307 308 309 307 306 306 308 304 302 303 303 302 302 301 301 304 303 301 300 300 301 303 303 304 304 304 306 306 306 308 308 307 307 307 308 311 313 313 314 313 314 314 314 314 313 314 313 313 313 314 314 313 315 315 315 314 313 314 312 312 313 319 321 322 320 313 313 319 318 316 317 316 317 319 320 317 317 316 315 319 321 318 316 314 316 314 313
308 307 307 305 305 303 302 301 301 301 301 301 301 301 301 301 300 300 300 300 299 300 302 303 303 304 305 305 305 305 305 305 305 305 306 308 310 311 312 314 317 320 313 313 314 316 315 313 313 314 313 314 315 314 313 313 313 312 310 320 313 313 318 323 320 318 321 320 318 317 320 315 312 316 319 319 317 315 312 311 314 314 314 314 315 314 314
305 303 301 301 302 301 301 299 300 300 300 300 301 301 301 301 302 303 301 303 304 303 303 302 303 303 304 302 302 302 303 302 302 302 303 304 305 307 308 310 310 311 310 312 312 312 313 312 314 314 313 315 315 315 314 313 313 313 311 312 311 312 320 319 319 317 320 320 316 314 314 317 315 315 313 317 314 314 312 313 314 315 315 312 308 307 311
307 307 306 305 304 303 302 300 299 301 300 300 300 301 301 302 303 302 303 303 303 302 302 303 303 304 303 303 302 303 303 304 303 305 303 302 302 304 306 311 308 308 310 310 311 310 310 311 311 312 314 315 315 316 315 314 313 313 312 311 311 310 314 314 314 316 316 319 314 316 316 315 314 313 317 317 314 311 314 312 314 312 310 307 304 304 301
310 309 308 307 305 305 305 302 300 301 301 300 300 301 302 303 303 303 305 303 302 303 304 304 303 303 302 301 303 302 301 301 302 302 301 302 303 303 303 308 309 311 311 308 305 307 309 309 310 312 313 315 316 316 316 315 315 313 312 312 315 313 313 316 313 313 314 314 314 311 312 312 312 320 316 313 311 314 314 313 312 310 307 306 306 305 304
309 308 307 306 304 305 304 302 303 303 302 302 302 303 303 303 303 306 307 303 303 304 302 302 301 301 301 301 302 301 301 302 302 301 301 302 303 302 303 305 306 305 305 307 305 305 307 307 321 325 315 314 313 314 315 315 315 316 316 316 317 318 317 317 317 316 315 312 312 313 312 315 315 313 316 310 311 311 312 312 311 310 307 305 306 304 302
310 309 308 307 304 304 303 303 304 303 302 302 303 304 304 304 305 303 304 303 303 303 303 302 302 302 301 301 302 301 301 302 302 302 302 303 302 302 302 302 304 306 308 305 304 304 307 308 321 327 320 315 315 311 316 323 313 311 315 313 313 315 314 313 313 312 311 312 313 312 314 315 312 311 314 308 308 307 308 308 311 309 307 307 306 305 304
308 308 308 307 305 303 304 304 305 304 305 304 305 306 306 304 303 304 303 303 303 303 302 302 303 303 302 302 300 301 301 301 302 302 302 301 302 302 302 302 303 303 303 305 303 305 307 315 322 315 310 310 309 310 316 326 323 310 308 309 312 313 314 312 312 312 311 309 315 311 311 311 312 312 312 309 307 308 309 308 310 309 308 307 305 305 304
307 306 306 306 305 304 304 305 305 305 306 305 304 304 305 306 305 303 302 301 302 304 302 301 300 300 300 301 301 300 302 302 303 301 301 301 304 302 303 304 303 304 305 307 306 305 309 317 312 308 308 307 308 309 312 326 325 307 306 309 310 310 311 312 310 311 311 310 310 309 309 309 310 310 308 307 305 309 311 309 308 309 307 306 305 303 303
307 306 305 306 305 305 305 305 304 305 304 306 306 305 306 305 303 303 301 301 303 306 302 300 300 301 300 300 299 300 301 301 302 301 301 301 301 301 300 299 300 302 306 317 309 309 318 324 309 301 305 307 309 307 312 317 320 312 307 306 307 309 309 310 309 308 308 308 309 314 307 308 308 309 308 308 308 308 307 307 306 306 304 304 303 304 305
307 306 305 306 306 305 305 304 304 304 305 305 305 306 305 303 302 301 300 301 301 300 299 299 300 301 299 299 298 299 299 302 303 301 300 301 300 299 300 298 300 303 304 306 308 312 316 315 309 304 304 307 305 312 309 315 311 306 306 306 307 308 308 308 308 307 306 306 309 304 304 306 307 307 306 305 305 305 305 304 304 304 302 303 302 303 303
306 306 305 305 305 305 305 305 304 303 302 304 306 304 303 303 303 302 302 302 301 301 301 301 307 301 299 299 299 301 300 299 299 300 300 301 301 298 299 298 298 301 316 312 310 309 304 303 307 310 307 307 308 314 317 310 305 303 303 306 307 309 308 308 309 307 309 308 305 304 305 305 304 304 305 305 305 305 306 306 305 303 302 303 304 304 304
306 306 305 305 305 305 305 305 304 304 303 303 304 303 303 303 303 303 302 301 301 299 299 300 307 309 306 300 300 299 297 298 299 299 299 299 300 301 301 299 301 303 318 313 307 302 303 302 303 303 311 312 311 316 317 308 304 302 303 305 308 307 307 308 308 309 308 306 306 305 305 306 306 305 306 305 305 306 306 305 305 304 303 302 302 303 302
307 307 306 306 305 306 305 304 304 304 303 302 302 303 303 303 303 303 302 302 301 300 299 298 299 299 301 299 298 299 298 298 299 299 299 300 300 299 303 303 303 309 316 308 306 305 305 304 303 309 315 316 315 316 309 303 304 303 303 305 305 306 306 306 306 305 304 305 304 303 302 305 304 304 304 304 304 303 304 304 303 302 301 299 299 299 299
307 307 306 306 306 306 305 304 304 303 303 303 301 302 302 301 301 302 303 302 302 302 305 299 299 300 299 300 300 300 299 299 300 299 299 299 300 299 302 315 310 310 311 312 305 304 303 303 309 314 315 315 314 311 298 299 299 302 302 304 303 304 305 304 304 304 304 303 304 303 304 303 302 302 301 302 305 303 302 301 301 300 300 299 299 299 299
307 307 308 311 306 305 305 304 304 303 302 302 301 303 302 301 301 301 301 302 302 304 302 302 301 301 300 300 300 300 300 300 299 300 301 301 300 299 302 311 306 314 311 310 304 302 300 312 313 312 311 311 308 300 298 301 299 297 299 300 303 305 303 303 304 303 303 303 303 301 301 300 301 300 299 300 300 300 300 303 301 298 298 298 298 297 297
307 307 307 306 305 304 304 304 304 303 302 301 301 301 302 300 301 301 302 301 301 301 301 300 301 301 300 301 301 300 300 299 300 302 302 303 308 310 312 314 315 313 309 303 303 303 303 304 309 310 309 308 305 297 296 295 296 297 299 300 301 301 301 301 301 300 301 301 306 306 309 305 302 300 303 303 300 300 300 299 297 297 298 299 300 300 300
308 307 306 305 304 303 304 304 303 301 301 302 301 301 302 301 301 301 301 301 301 300 300 300 301 301 300 300 301 301 301 302 300 300 302 303 303 305 304 302 307 313 310 310 307 308 309 309 308 307 306 305 297 295 298 298 297 297 297 299 296 296 296 297 297 299 301 303 303 299 300 299 299 300 300 299 299 299 299 299 299 299 299 298 299 298 298
307 306 305 305 304 304 303 303 303 303 300 301 302 300 303 302 301 300 300 300 300 300 300 300 300 301 301 305 304 301 303 304 301 298 300 302 303 302 303 309 311 310 306 301 300 300 306 307 307 307 306 305 293 294 295 297 300 300 299 297 298 297 297 296 296 296 297 299 299 299 299 299 299 299 299 299 299 299 300 299 299 299 298 299 298 299 299
306 305 304 303 303 304 304 304 303 302 300 302 300 301 302 301 299 298 301 300 299 304 299 298 299 301 300 302 305 303 306 305 305 305 305 303 302 303 306 305 305 309 307 299 300 300 307 306 306 306 303 297 297 299 297 296 298 300 300 302 302 297 298 299 305 305 301 302 299 300 299 298 297 300 300 299 299 299 298 298 298 301 302 301 299 298 298
306 305 304 305 305 305 305 304 303 302 301 303 302 303 304 302 302 304 303 302 299 303 299 298 299 298 299 301 302 302 303 304 306 310 304 303 303 307 308 305 305 308 305 304 301 297 294 292 294 301 300 299 297 300 299 299 299 301 303 299 300 300 300 300 300 299 299 301 299 300 299 299 299 298 297 299 300 299 299 300 299 300 299 298 298 298 298
306 305 304 305 305 304 302 302 303 303 303 304 303 305 304 303 304 305 304 312 303 299 299 297 298 297 298 300 303 302 302 304 306 305 308 306 305 303 307 310 303 305 302 301 296 294 294 297 305 304 305 296 294 297 304 305 301 299 300 302 304 301 302 302 301 300 299 301 302 300 303 300 300 300 300 300 300 301 300 299 299 298 298 296 296 297 297
Wind_Speed
8 9 7 3 13 9 7 11 13 14 11 14 9 4 3 2 6 7 1 3 7 5 7 5 5 4 4 5 5 5 5 5 4 5 5 4 2 4 3 2 2 5 7 7 7 5 4 4 2 6 9 10 10 10 10 11 10 10 9 9 10 10 9 10 10 9 8 7 6 7 7 7 7 7 7 6 6 6 5 6 6 7 7 7 7 7 7
6 9 10 6 11 11 16 15 14 12 13 12 11 11 11 10 11 12 13 13 12 6 6 6 5 5 6 5 4 6 6 5 7 7 6 7 4 4 4 4 5 3 2 5 6 7 6 4 4 3 3 7 10 11 10 9 9 9 9 9 10 10 10 10 9 8 8 7 7 7 7 8 7 7 7 6 6 6 6 7 7 6 6 7 7 8 8
3 3 3 6 15 16 14 15 15 14 12 16 15 12 10 9 11 11 12 14 11 6 5 6 6 6 6 9 10 9 7 6 5 6 7 8 8 8 6 3 3 4 4 3 4 5 5 5 6 5 5 3 4 4 4 3 2 2 6 10 9 10 11 9 8 8 8 8 7 8 8 8 7 7 7 6 6 6 6 6 6 6 5 6 7 7 8
3 4 3 2 6 8 15 15 16 15 14 13 12 10 7 4 4 3 10 11 7 4 5 5 7 10 11 10 9 8 6 5 5 5 4 5 5 7 8 7 6 6 6 4 2 5 5 5 5 6 6 6 6 3 4 7 6 6 4 1 7 10 10 9 8 8 8 8 8 9 8 8 7 7 6 6 5 5 6 6 6 5 5 6 6 6 6
2 4 5 3 5 6 10 12 10 8 6 9 11 12 14 9 3 5 7 4 2 3 2 7 8 10 9 8 6 6 5 2 3 4 5 4 3 4 6 8 7 8 7 5 2 5 4 3 4 4 7 8 5 1 2 3 8 7 8 5 2 5 6 6 7 7 7 7 9 7 5 3 3 5 6 6 6 6 7 7 5 6 7 6 6 6 5
4 6 7 3 7 6 1 3 1 2 7 9 15 9 11 12 9 6 5 4 3 5 5 8 8 10 8 7 6 4 2 0 1 2 2 2 1 4 6 7 8 7 7 7 8 11 9 5 5 3 3 6 6 5 3 1 3 8 10 4 3 3 5 3 3 5 5 5 4 3 3 3 3 2 0 2 1 1 3 4 6 7 7 7 6 6 6
2 5 5 7 4 2 3 3 2 2 1 9 13 11 12 11 8 8 8 6 6 6 7 8 9 10 10 10 10 9 6 3 1 1 3 5 4 1 0 3 4 5 6 7 7 8 9 10 8 6 5 4 4 5 6 8 10 9 3 8 9 9 8 9 12 8 2 6 6 5 5 5 4 4 3 2 1 1 0 1 4 7 8 8 7 6 6
3 2 3 2 2 2 1 3 4 6 1 1 2 9 9 8 7 5 5 6 6 6 6 7 6 8 8 9 9 8 8 7 6 6 6 7 6 4 3 0 1 1 1 3 4 4 5 8 9 8 6 3 5 6 7 8 8 5 3 0 5 7 10 10 9 3 6 3 6 6 6 6 6 6 5 5 5 2 2 1 2 2 1 1 3 3 3
4 2 3 1 1 2 3 4 2 2 2 4 1 4 3 4 3 4 2 5 6 5 5 6 5 4 6 9 8 8 8 7 7 7 7 8 7 6 5 4 4 4 2 3 4 3 2 3 7 8 6 7 7 5 5 5 6 6 3 4 4 4 5 5 7 8 9 6 5 7 8 7 6 5 4 2 1 2 4 3 2 2 2 2 2 2 2
4 7 5 2 1 1 5 3 3 2 2 3 2 4 1 4 4 2 2 3 1 1 0 1 3 3 3 7 6 6 6 6 6 6 7 8 8 8 7 7 7 6 5 4 3 6 7 4 4 6 8 8 7 6 4 4 5 4 2 4 6 2 4 3 1 1 1 2 4 4 5 6 5 5 4 3 1 1 1 3 4 5 6 6 4 3 3
4 4 7 4 4 3 3 2 5 5 3 4 1 4 2 3 1 2 1 2 1 2 2 3 3 2 3 2 4 4 4 4 5 6 7 8 8 7 8 8 7 7 6 4 4 7 7 7 4 4 7 9 9 6 5 5 6 6 4 2 2 2 4 4 4 4 3 2 2 2 3 3 6 7 6 4 3 3 3 2 3 4 4 2 2 2 2
1 4 3 2 2 2 0 3 5 5 4 2 2 2 2 2 2 0 1 2 0 0 2 3 5 3 6 2 4 2 4 5 6 6 7 8 7 8 8 8 7 7 5 6 7 8 7 6 5 5 5 8 8 6 5 4 5 5 4 4 4 3 3 3 4 4 5 5 6 7 4 6 7 8 7 5 4 4 4 3 3 4 5 4 4 4 3
2 5 0 1 1 2 2 4 6 6 3 2 2 2 4 2 1 1 2 3 2 2 4 2 3 2 2 5 6 5 6 7 7 6 7 7 7 7 8 8 7 7 7 7 8 7 6 6 6 6 7 8 8 6 6 6 7 5 4 4 5 3 2 2 2 3 3 4 6 3 4 7 6 6 6 7 6 5 4 4 5 4 5 6 6 5 4
2 1 4 1 3 4 3 4 4 4 1 1 2 3 2 3 1 2 5 5 4 4 5 4 6 6 7 6 6 7 6 5 3 4 5 6 6 5 4 6 6 6 7 8 8 9 7 7 6 6 8 9 8 7 8 8 5 3 3 4 5 5 4 3 2 1 1 0 1 1 2 4 4 2 1 2 3 4 4 5 6 5 5 4 5 6 5
2 4 4 1 1 2 3 8 2 2 1 2 3 2 2 1 1 3 5 5 5 7 8 6 7 7 6 6 6 5 5 5 4 4 4 4 4 4 5 6 6 7 7 7 8 7 7 7 6 6 10 10 9 8 9 6 5 5 6 6 6 5 5 5 4 4 4 4 4 4 5 5 5 4 2 2 2 3 4 5 6 7 7 5 5 5 6
3 1 2 2 2 4 5 1 1 1 1 3 4 5 1 2 2 3 4 5 4 4 7 7 6 6 6 5 5 5 4 4 4 4 4 4 4 5 5 5 5 6 7 6 7 7 6 6 6 6 8 9 9 10 7 3 4 4 4 5 5 6 5 5 4 5 5 5 6 5 5 5 6 5 3 3 4 5 5 6 6 7 5 5 5 6 6
1 2 4 3 2 3 4 2 1 1 2 1 2 5 4 3 2 1 4 3 4 4 6 6 6 6 4 4 3 5 4 4 4 5 3 3 3 3 4 5 5 6 7 7 7 8 7 7 7 7 6 7 6 7 3 3 3 3 3 3 3 4 5 5 5 5 5 5 5 5 6 6 6 5 5 4 6 5 8 7 8 7 5 4 5 6 5
1 2 2 0 1 2 4 4 2 3 3 3 3 5 5 1 2 2 5 3 4 4 4 7 3 4 3 5 4 4 3 4 3 3 4 4 3 3 4 4 4 5 5 6 6 7 7 6 6 5 6 6 6 2 2 3 3 3 4 4 3 3 3 2 2 3 4 6 6 6 7 7 7 6 6 5 4 5 6 5 5 6 5 4 4 5 4
5 1 2 3 2 2 3 4 4 5 5 3 2 4 4 3 3 3 3 4 4 3 4 6 6 4 3 5 3 3 3 4 3 3 4 3 3 4 4 2 3 4 5 5 6 5 5 4 5 5 6 5 4 3 4 3 3 4 4 4 4 4 4 3 2 2 5 5 5 7 7 7 7 6 6 6 5 5 5 5 5 4 5 5 5 5 4
2 3 2 1 1 1 1 2 4 4 5 6 6 4 3 4 3 3 2 3 4 3 5 4 6 4 3 5 3 3 2 2 2 2 2 2 3 3 3 3 4 4 5 4 4 5 4 3 3 4 4 4 3 4 4 3 4 5 5 5 5 5 5 4 5 4 4 7 6 5 6 7 7 7 6 6 6 5 5 4 3 4 5 5 5 5 6
0 1 1 0 3 5 5 4 3 3 3 6 6 5 5 5 6 5 3 2 3 4 5 4 6 5 3 4 4 4 3 3 2 2 2 1 1 2 5 3 3 5 4 4 4 4 3 2 3 4 4 4 4 5 4 4 4 5 4 4 4 5 5 5 5 5 5 5 5 6 6 7 7 6 5 4 4 4 4 4 3 1 3 4 4 5 5
3 6 6 4 5 2 0 1 3 4 3 7 6 6 6 5 5 5 6 5 4 4 3 5 5 5 3 3 4 5 4 3 2 3 3 2 2 1 2 3 3 4 4 5 4 4 2 3 4 4 4 4 4 4 4 4 5 5 4 4 4 4 3 3 4 5 5 5 5 5 5 4 5 6 9 8 6 4 3 9 9 4 3 2 4 6 6
7 7 6 5 4 4 4 4 1 1 2 6 8 5 5 4 3 4 6 6 5 5 4 2 6 5 4 3 3 5 4 3 2 2 4 6 4 3 3 4 3 4 4 5 5 4 3 3 4 3 3 3 4 4 4 3 4 4 4 4 3 4 3 2 2 4 4 5 4 5 4 5 5 6 4 6 9 10 8 8 8 11 12 13 11 7 4
1 5 9 6 6 7 4 3 4 4 3 9 7 4 4 5 5 6 6 5 7 4 4 5 3 5 4 2 4 5 4 4 4 4 4 3 3 3 2 4 4 4 4 4 6 5 3 4 4 4 3 2 2 3 3 3 3 3 3 3 4 3 3 2 2 3 3 4 4 5 4 3 3 5 5 5 5 9 11 10 11 12 13 13 12 12 11
4 5 7 5 4 6 4 5 4 4 3 7 8 6 6 7 6 7 9 6 5 7 6 5 4 2 4 3 3 3 3 3 3 4 4 4 4 3 3 3 3 3 3 3 3 4 4 4 3 3 3 1 1 2 2 2 3 3 2 2 2 1 1 2 3 3 2 2 2 3 4 4 3 3 5 5 6 5 6 9 11 11 12 11 11 11 10
5 8 5 4 3 6 5 5 4 5 4 5 5 3 4 7 7 8 7 7 6 6 7 6 6 4 3 5 4 3 3 3 3 4 5 4 3 3 3 3 2 1 2 2 3 3 3 3 3 3 3 0 1 1 2 2 2 2 1 1 1 1 1 1 3 3 3 2 2 1 2 2 2 2 2 3 5 5 5 4 5 7 9 10 9 9 10
5 11 11 9 5 1 4 8 6 4 4 5 7 5 4 6 8 7 6 7 6 6 6 6 5 5 6 4 3 3 4 2 4 4 3 2 2 1 1 1 2 2 2 1 1 1 3 2 2 1 1 1 0 0 2 3 2 2 2 2 1 2 2 4 2 2 2 2 2 4 2 2 1 1 2 2 2 3 4 5 5 4 3 3 5 6 4
9 10 13 11 8 9 6 2 6 5 6 8 8 7 5 5 7 8 8 7 7 7 7 6 7 8 7 5 6 6 6 5 5 3 3 2 1 0 1 1 2 2 2 1 1 1 0 1 0 0 2 2 2 1 1 3 2 2 2 3 3 3 2 3 3 4 3 2 3 3 4 2 1 3 3 3 3 2 2 2 4 4 2 1 0 2 5
6 4 3 2 9 6 5 4 6 6 5 4 6 6 7 9 6 7 5 4 3 4 6 5 5 5 6 4 5 6 5 5 5 5 4 2 1 0 0 2 2 1 1 1 1 0 0 0 1 2 3 2 1 0 1 2 2 1 1 2 2 3 2 2 3 4 3 3 3 2 2 1 2 2 2 2 2 3 3 4 4 3 3 3 2 2 0
3 2 5 6 7 8 9 6 6 5 7 6 8 5 6 10 8 5 4 3 5 5 1 3 6 5 5 5 4 4 5 5 4 3 4 3 3 2 2 3 3 2 2 1 0 0 1 2 2 3 4 3 2 1 0 2 2 1 0 0 0 0 1 0 1 3 3 3 2 2 1 1 1 1 1 1 1 2 3 4 4 4 4 4 4 4 5
2 3 8 7 7 7 10 8 5 6 6 5 7 6 4 7 8 6 4 4 4 4 3 4 4 4 5 4 3 2 3 3 3 3 3 3 3 3 3 3 3 1 1 2 3 3 3 4 4 4 4 3 3 2 1 1 1 1 1 0 1 2 3 4 2 2 2 1 1 1 1 1 0 0 0 0 0 1 1 2 3 3 3 4 4 5 4
8 6 8 7 7 7 5 5 6 6 6 5 7 7 7 8 7 6 4 4 4 4 4 5 5 4 2 1 3 4 4 4 4 4 4 3 3 2 1 4 4 4 2 1 1 3 4 4 5 5 2 3 3 2 2 1 1 1 1 3 2 2 2 4 2 1 1 1 1 1 1 1 1 0 0 0 1 1 1 2 3 3 5 4 4 3 3
9 6 4 5 4 5 6 4 8 6 6 7 7 7 6 5 7 6 5 5 4 3 5 4 3 2 2 2 4 4 3 3 3 4 5 4 4 3 2 0 4 4 3 2 2 2 2 3 4 3 3 3 3 3 2 2 3 3 2 2 3 2 2 2 2 1 1 1 1 1 1 1 1 1 1 1 2 3 3 3 3 2 2 2 2 2 3
14 13 14 14 14 13 12 8 5 7 5 4 5 6 5 5 6 5 5 4 5 5 4 4 2 1 2 4 4 4 4 4 3 4 4 4 4 4 4 3 2 3 2 2 2 2 3 3 3 2 2 2 4 3 3 2 2 2 2 3 2 2 2 2 1 1 2 2 2 2 2 1 1 2 2 1 2 3 3 3 2 2 3 2 2 2 2
9 6 8 9 6 7 8 10 8 7 8 7 4 4 5 5 5 5 5 6 5 4 4 4 4 3 4 4 4 4 4 3 2 2 3 3 4 4 3 2 2 0 0 1 2 3 3 3 3 3 3 3 2 3 3 3 2 2 1 1 1 1 1 0 1 3 3 3 3 3 2 2 3 4 3 3 3 3 4 3 3 3 4 4 3 2 2
6 5 4 4 4 6 7 8 8 9 9 9 8 7 6 6 5 5 5 5 4 4 4 4 4 4 4 4 4 4 3 3 3 3 3 4 4 3 4 3 1 2 3 5 4 3 3 3 4 4 1 1 2 3 3 4 4 5 4 4 2 1 1 2 3 3 3 3 3 3 3 5 4 3 3 3 2 2 3 4 4 3 4 5 4 3 3
6 9 8 7 5 6 8 8 8 9 8 8 7 6 5 5 5 4 4 4 4 4 4 4 4 5 4 3 3 3 2 2 3 2 1 2 2 4 4 3 3 1 0 2 3 3 3 3 4 4 1 0 0 0 1 5 4 3 3 5 3 2 2 2 2 2 3 3 3 3 3 3 3 3 3 4 5 3 3 5 3 4 4 4 3 4 4
5 7 9 9 7 7 8 8 7 7 6 5 3 4 7 6 5 6 5 4 4 4 4 4 4 4 4 4 4 4 3 2 2 2 2 3 2 4 4 3 3 2 2 3 3 3 3 1 5 4 3 2 2 2 2 5 7 4 4 4 4 4 3 3 3 3 3 5 4 4 4 3 4 5 5 5 5 4 4 3 4 5 5 4 3 3 4
4 2 4 6 6 6 5 4 4 5 9 9 6 5 4 6 5 6 5 4 4 4 5 4 4 4 4 4 3 2 1 1 1 1 2 2 1 3 0 0 0 1 2 4 3 3 2 2 3 3 2 1 1 1 2 2 6 4 4 4 3 3 2 3 3 2 2 2 3 3 3 3 4 5 5 3 1 1 2 4 4 3 5 5 5 5 5
7 7 7 7 7 6 7 7 6 6 5 8 11 9 6 7 6 6 5 4 1 2 4 4 4 4 3 3 3 2 1 1 0 0 1 0 1 1 1 2 3 3 3 4 2 3 2 3 2 2 2 2 2 3 2 2 2 2 3 3 3 3 3 2 2 3 3 2 2 2 2 3 2 2 2 2 2 1 2 3 3 3 4 4 4 4 4
9 8 6 7 8 8 9 9 7 6 7 6 6 7 6 8 6 6 5 4 2 3 4 4 4 3 2 3 3 3 2 1 1 1 0 0 1 1 0 3 2 2 2 2 1 2 2 3 3 3 3 2 2 3 1 2 0 0 1 1 1 1 2 2 2 3 4 3 2 3 5 5 4 5 5 5 4 4 4 5 5 5 5 5 4 4 4
8 8 8 8 8 8 8 8 8 7 5 5 6 7 7 7 7 7 5 5 4 4 4 3 5 4 3 3 2 1 1 2 2 1 1 1 3 2 1 3 3 2 4 2 3 4 4 4 3 3 2 2 2 4 4 1 0 0 0 0 0 1 1 1 1 1 1 1 2 3 3 3 5 5 5 4 6 6 5 5 4 4 5 6 7 6 5
9 10 10 9 8 8 9 9 9 9 7 5 6 6 6 5 6 6 5 5 5 4 4 3 2 2 2 2 2 2 2 2 1 1 2 1 2 4 4 3 2 2 4 1 3 3 3 2 3 3 5 5 4 7 6 1 1 1 1 0 0 0 1 1 1 1 1 2 2 2 2 2 2 3 2 3 2 3 4 4 5 5 5 5 5 5 4
9 9 9 9 8 7 8 7 7 7 8 6 4 5 6 5 6 7 6 5 4 4 4 3 2 3 3 2 2 1 2 2 1 0 0 4 4 1 3 3 2 2 2 2 3 3 3 3 3 5 8 8 8 7 2 1 0 0 1 1 2 2 2 2 2 2 2 2 2 4 5 3 4 3 2 2 3 3 2 2 3 3 2 3 3 3 3
10 9 9 9 9 8 8 8 10 10 7 6 5 5 5 6 5 5 6 5 5 4 3 4 3 3 3 3 4 4 4 4 3 2 1 1 2 2 1 2 1 1 2 4 2 2 2 3 4 6 5 6 6 6 3 3 2 0 0 1 1 1 1 1 1 1 2 2 1 2 2 2 3 3 3 3 3 2 2 3 2 3 4 4 4 4 4
8 8 8 10 10 9 8 8 6 7 8 7 5 4 4 5 5 4 4 5 4 4 4 4 4 4 4 4 3 2 1 1 1 3 5 4 4 3 1 2 0 2 5 5 1 1 1 4 5 5 6 6 5 4 3 2 2 3 2 1 0 0 0 1 1 1 1 1 1 1 2 2 3 4 3 3 2 3 3 4 4 4 4 4 4 4 4
8 7 8 8 7 7 8 8 8 9 8 8 7 6 4 4 4 4 4 4 4 4 4 4 4 4 4 4 4 2 1 0 1 1 0 1 1 2 3 4 6 6 4 2 1 1 1 1 3 5 6 6 6 4 3 3 2 2 2 2 1 1 1 1 1 1 1 1 0 0 0 1 2 3 3 4 4 4 4 4 5 5 5 5 5 6 6
9 9 8 8 10 8 9 9 9 9 8 9 7 7 4 4 4 4 4 4 4 3 3 2 3 4 3 3 3 3 5 4 2 1 0 0 1 2 3 3 2 5 4 3 3 3 4 4 5 6 6 5 3 4 3 3 3 3 2 2 2 2 2 2 1 0 0 0 1 1 2 2 3 4 4 5 5 5 5 5 5 5 5 6 6 6 6
8 9 8 9 10 10 10 9 8 8 7 5 5 5 5 5 4 4 4 3 3 3 3 3 3 4 3 3 4 6 4 3 4 4 3 2 3 3 2 3 5 5 2 1 1 0 1 4 5 6 6 5 3 3 3 2 2 1 1 1 0 0 0 1 0 0 0 1 1 2 3 4 4 5 5 5 4 4 5 5 5 6 5 5 5 4 5
8 9 9 9 10 10 10 9 8 8 7 6 6 6 5 5 5 5 4 4 5 3 2 3 4 4 4 4 3 3 4 2 1 3 4 3 2 3 2 3 1 4 4 2 1 0 1 2 2 3 3 2 1 1 1 2 1 1 0 0 0 1 0 0 1 0 0 1 0 1 4 4 5 5 4 4 4 4 5 5 5 6 9 7 6 6 6
9 10 10 10 10 10 10 10 9 8 7 7 6 5 6 6 7 5 6 5 3 2 2 3 2 1 2 3 3 3 3 3 3 5 4 3 2 3 3 3 3 3 1 1 1 2 1 0 0 0 1 1 1 0 1 0 0 0 0 0 0 1 1 1 1 1 1 0 1 1 1 2 3 4 5 5 5 5 5 6 6 6 6 6 6 6 6
7 5 5 6 7 6 5 4 6 7 7 6 6 6 6 6 5 5 5 5 6 4 4 4 2 1 1 4 5 3 3 4 4 3 4 3 3 2 3 4 3 2 2 2 3 2 2 1 1 1 1 0 0 0 2 2 0 0 0 0 1 0 0 0 1 1 2 1 1 1 1 1 4 5 5 5 5 6 6 6 6 7 6 6 6 5 5
Wind_Direction
359 355 1 39 77 57 52 40 27 25 15 46 57 352 300 138 153 182 193 83 85 50 49 37 40 40 67 69 79 103 120 116 112 120 138 163 107 24 37 90 130 164 166 157 142 124 111 115 176 217 195 191 190 189 189 186 183 188 182 181 185 187 191 195 200 200 201 203 203 204 204 204 209 212 213 214 214 215 213 214 214 214 213 208 206 211 215
19 17 19 15 79 66 43 31 24 26 32 37 48 51 48 76 95 112 106 84 70 43 32 41 39 35 50 51 50 54 59 106 133 128 135 159 147 91 24 359 20 345 225 159 146 127 104 101 109 134 229 216 192 188 191 188 187 188 175 184 185 191 195 200 198 196 198 201 204 205 207 210 213 213 216 216 216 219 220 220 221 215 212 211 208 211 214
350 358 18 52 58 60 52 27 24 24 31 37 29 35 26 56 81 95 90 79 69 39 35 46 40 41 52 49 44 45 44 48 84 122 142 153 154 142 138 105 48 54 40 53 60 73 87 91 85 71 74 26 297 233 170 157 178 204 186 183 191 193 200 201 196 195 196 200 197 202 209 213 215 217 219 219 221 223 223 223 223 219 213 214 213 213 214
333 315 295 274 40 48 57 31 16 14 30 38 23 34 19 32 71 79 82 69 59 28 33 61 62 61 56 54 49 48 47 53 88 104 127 164 162 145 130 109 88 58 46 8 57 66 58 68 80 94 84 83 96 116 149 132 125 92 43 305 210 198 203 199 197 197 198 197 197 203 204 210 215 219 219 218 223 227 228 227 225 216 216 218 220 219 216
281 252 318 327 22 29 26 9 349 335 34 71 44 36 36 26 304 41 55 77 42 66 40 72 63 74 76 68 55 67 55 54 107 139 154 144 99 88 115 120 120 118 119 117 79 68 34 81 102 117 119 114 118 125 287 172 134 141 149 156 233 244 217 199 200 198 197 200 203 202 198 206 229 219 210 218 223 219 221 223 216 212 217 211 216 216 211
256 311 323 2 52 53 288 256 302 1 29 55 65 29 21 29 36 71 60 73 76 88 75 75 74 65 59 67 69 66 73 89 359 9 0 38 103 136 134 136 138 142 147 149 154 152 155 147 127 119 101 121 131 127 137 275 173 173 171 145 78 20 344 303 227 175 163 161 154 126 100 92 82 51 190 195 205 244 239 215 207 215 215 211 209 206 203
227 324 1 45 40 233 235 251 245 199 65 56 74 61 37 20 38 75 85 78 78 79 77 79 75 69 61 52 49 46 42 28 26 23 22 15 17 345 74 126 132 147 160 147 148 144 141 137 130 116 112 117 121 108 95 67 24 360 37 90 94 92 80 30 3 337 176 162 157 142 128 121 114 116 111 98 76 36 46 259 234 216 206 207 208 202 197
53 24 31 97 245 241 322 309 291 291 243 218 18 41 31 20 14 25 59 81 81 66 70 71 73 79 72 62 46 39 35 36 40 48 38 33 31 21 3 43 64 68 71 146 138 134 134 130 133 140 135 102 78 65 83 103 105 84 341 257 145 148 145 148 146 167 294 242 170 160 152 151 156 156 148 151 160 158 116 69 19 359 325 241 194 172 149
146 172 95 134 38 7 329 326 357 48 337 321 95 110 345 344 331 23 41 62 86 92 97 106 86 59 65 62 47 35 34 41 43 46 48 49 52 57 47 55 55 39 37 114 121 95 56 86 113 114 107 107 99 85 77 81 99 122 163 256 229 164 154 143 162 180 188 205 206 182 173 169 163 145 117 61 56 139 122 114 73 36 21 33 53 87 89
114 127 94 72 30 207 261 235 272 280 225 269 206 101 317 308 338 18 98 116 39 133 280 335 354 10 47 44 45 36 38 41 51 45 48 46 47 46 48 55 54 37 17 342 109 122 122 106 101 109 111 109 98 89 77 85 100 102 130 238 259 191 131 127 138 61 347 248 211 189 186 171 136 99 88 91 35 11 67 93 83 64 28 11 18 50 73
63 85 132 172 159 235 201 256 275 284 267 270 171 73 354 271 269 324 121 113 200 253 275 340 6 51 57 55 52 42 27 28 39 53 47 51 50 43 41 39 43 37 28 12 64 99 105 99 66 72 94 100 103 105 104 108 110 119 135 201 240 199 144 127 123 138 138 159 271 251 213 117 87 75 55 57 43 57 72 52 65 81 93 87 337 18 65
58 125 84 179 211 124 203 254 289 297 281 233 92 57 276 253 268 243 122 143 174 228 101 84 56 100 128 156 104 49 45 43 38 46 49 47 45 47 42 40 42 41 26 28 45 46 53 52 53 70 103 120 118 118 115 112 102 97 79 53 21 29 90 126 153 166 179 197 196 216 202 99 104 120 142 141 136 120 112 112 116 108 125 102 70 31 34
73 87 271 326 322 285 267 271 303 303 278 91 89 180 234 245 245 52 98 66 56 137 101 80 96 354 75 102 101 95 93 75 52 44 49 50 48 48 48 47 49 54 38 40 41 38 40 51 63 73 88 88 88 95 92 78 67 64 84 108 111 110 95 126 164 185 208 201 193 191 148 141 159 159 156 146 135 131 127 129 117 91 86 111 124 118 85
56 137 111 201 244 240 266 292 275 268 64 143 221 234 217 158 188 28 83 83 76 95 100 102 94 89 82 89 92 89 79 83 72 64 63 63 55 45 43 51 50 58 57 41 37 41 38 50 56 69 78 79 74 72 73 73 72 83 83 71 71 74 83 94 105 128 143 104 55 47 81 113 124 130 85 83 114 119 120 112 112 111 112 105 107 109 102
56 39 69 22 132 264 339 316 341 29 107 231 203 133 10 35 100 79 60 71 86 104 95 76 83 86 74 84 90 93 95 92 82 70 68 67 62 47 45 50 47 62 58 48 44 40 35 39 49 70 88 86 85 78 70 51 36 36 38 48 58 65 55 46 42 41 43 52 52 53 53 59 78 81 92 106 108 120 125 121 118 117 113 122 107 90 81
142 103 135 185 215 252 309 95 155 285 199 173 170 121 82 6 48 65 76 54 67 83 106 107 90 90 92 72 88 85 81 87 79 73 67 61 58 56 50 53 58 66 68 61 53 39 33 35 38 41 73 85 83 84 82 92 82 73 66 59 59 58 56 50 46 39 37 48 57 62 70 79 82 82 78 118 143 146 136 123 105 98 95 102 100 92 88
117 194 205 237 244 254 306 28 90 92 359 87 156 104 124 131 52 74 92 91 83 96 109 97 103 88 79 104 103 110 113 95 96 99 95 91 88 76 69 62 59 56 62 62 57 45 31 32 28 30 35 75 75 69 51 68 71 74 68 73 74 73 68 63 57 52 54 55 52 51 50 57 67 66 70 76 94 95 99 103 111 115 122 121 113 113 108
196 79 104 148 2 13 22 19 21 76 60 26 68 107 107 42 127 133 129 123 111 109 114 109 76 106 134 104 96 93 87 87 82 96 91 80 80 77 81 75 71 83 79 72 66 59 38 30 37 38 38 44 60 27 47 79 95 97 93 82 65 61 82 86 72 49 57 48 46 49 62 62 63 57 59 44 61 75 77 83 101 115 119 109 109 109 102
59 75 315 60 93 13 33 63 47 55 56 42 59 75 78 118 107 93 100 124 128 115 103 111 123 123 115 102 85 86 89 77 85 111 113 100 102 111 100 94 96 84 84 78 76 75 60 21 39 43 48 48 56 48 50 40 47 52 63 61 60 47 37 32 22 45 72 60 48 34 34 44 41 45 52 54 52 65 74 96 112 136 137 137 129 120 110
107 205 202 288 334 28 354 46 78 59 48 49 44 63 93 108 96 94 129 115 92 102 100 116 114 104 95 108 104 80 58 84 102 122 130 124 104 90 110 95 95 81 73 78 77 75 65 31 53 50 44 37 36 50 45 41 36 40 44 45 38 29 28 33 37 40 58 73 64 45 35 37 44 30 32 49 55 47 43 44 88 135 148 155 150 137 132
349 25 3 223 63 33 9 24 58 80 103 90 61 59 68 73 82 78 55 53 136 123 128 111 106 90 67 106 117 103 87 75 92 167 165 151 179 136 109 92 101 115 106 78 66 68 50 33 59 47 39 27 23 34 40 42 48 50 46 49 41 25 22 31 40 57 53 57 59 63 58 51 44 28 15 12 21 58 51 55 1 351 153 135 119 122 132
165 179 196 175 112 226 243 40 92 84 93 100 92 77 65 67 83 85 89 67 65 89 103 117 102 107 86 60 86 85 89 99 125 141 120 129 127 75 80 92 88 88 90 98 81 69 40 48 66 62 45 32 24 26 34 44 55 61 64 67 50 29 32 40 41 61 63 70 74 83 84 86 84 62 51 57 40 38 30 9 11 12 86 118 130 130 118
208 231 206 176 122 117 182 177 186 107 113 91 86 86 97 80 79 91 99 94 70 64 50 56 111 111 110 98 86 72 55 58 92 132 136 138 139 137 124 98 75 85 91 92 89 81 73 74 69 66 51 26 31 24 40 46 66 72 74 75 77 56 75 67 64 74 88 86 88 93 101 112 103 100 90 65 64 55 48 38 30 36 60 67 66 59 94
274 187 176 174 148 154 187 207 163 134 127 101 95 94 90 96 98 92 86 100 109 83 70 56 70 117 113 106 84 83 39 35 56 74 81 89 112 119 99 118 126 109 101 100 108 118 111 100 103 98 86 55 60 52 59 62 68 74 79 83 85 78 82 107 90 95 95 114 115 109 95 93 110 116 109 91 54 44 48 42 39 48 49 52 54 58 53
187 183 165 183 151 120 127 154 150 134 134 110 109 106 106 96 88 96 94 86 91 104 92 76 49 75 108 81 89 95 84 38 44 70 79 87 88 87 82 79 91 112 120 123 121 118 116 117 113 107 97 62 19 46 44 53 77 74 82 100 91 53 33 109 128 131 116 113 120 120 133 127 110 114 115 119 106 72 33 53 63 60 53 50 51 46 48
145 116 109 83 87 118 127 89 71 105 119 111 96 89 88 102 101 84 81 88 81 76 83 81 74 46 101 117 113 109 84 76 62 59 65 71 73 85 106 137 141 123 133 127 120 118 113 123 131 120 113 99 25 68 66 49 50 69 81 113 170 158 102 106 123 130 141 124 125 115 92 94 121 121 123 117 126 129 105 71 45 42 53 56 60 70 58
113 125 108 86 85 95 191 149 173 175 114 90 106 106 90 82 81 88 86 78 79 74 81 84 85 75 57 59 92 106 120 94 48 39 62 86 119 167 188 146 133 144 135 111 111 154 159 140 139 134 173 249 314 17 99 86 74 56 50 61 31 303 138 110 107 120 121 121 123 132 148 163 176 170 141 140 146 140 146 145 143 135 130 53 47 53 82
147 153 149 147 176 180 203 213 134 132 113 117 117 113 116 96 80 75 70 66 60 61 61 60 72 67 62 41 72 63 55 63 71 63 50 26 338 288 155 149 154 171 161 174 226 259 103 117 110 66 269 278 322 9 97 96 90 71 48 41 37 32 35 91 96 102 105 105 107 110 114 124 165 174 170 168 166 163 146 153 146 141 138 175 70 73 89
162 143 8 127 154 140 107 106 94 97 90 98 111 117 106 86 80 85 77 73 75 67 63 52 64 76 87 66 72 80 76 71 65 54 38 9 355 347 233 177 173 167 163 181 210 349 72 14 283 279 276 279 323 13 109 103 102 87 34 48 52 37 43 74 105 110 112 115 118 125 106 74 65 71 122 169 172 161 162 161 160 175 152 149 130 78 30
150 75 98 105 115 124 121 128 136 128 127 139 124 117 119 112 99 102 105 89 82 81 50 52 59 48 60 60 55 84 93 95 94 67 44 38 49 98 89 91 82 71 69 71 287 314 242 238 237 248 266 283 280 299 112 102 112 122 138 70 104 153 148 167 113 118 116 116 116 87 76 67 52 73 83 78 121 161 175 178 172 166 161 183 184 178 185
101 113 122 124 126 139 145 157 143 140 135 142 129 108 85 109 122 124 128 113 87 95 84 91 89 65 54 66 63 85 104 91 66 54 43 40 41 73 121 116 112 131 183 211 213 210 216 231 235 243 262 267 264 264 182 136 125 110 97 94 185 247 200 166 170 165 157 140 104 103 108 96 149 166 125 79 76 79 117 151 159 170 180 183 186 188 188
110 109 125 139 147 144 133 126 132 143 152 148 130 137 146 132 139 147 156 131 145 144 119 91 85 93 100 47 51 45 45 45 41 39 32 25 25 13 86 126 127 137 170 214 230 207 211 210 238 246 246 264 259 237 193 165 152 152 192 179 179 216 219 192 176 193 186 176 152 130 145 152 244 271 313 200 166 163 140 137 159 177 176 186 201 175 161
118 105 119 142 129 141 151 175 149 158 155 160 166 159 160 150 145 152 162 147 118 107 109 125 136 140 154 103 63 45 29 20 30 31 28 9 341 335 344 72 134 146 163 185 185 199 180 202 243 252 231 221 226 235 212 189 186 207 219 191 191 204 204 202 213 197 216 187 198 204 237 237 205 179 204 196 176 160 149 148 154 158 161 156 141 163 169
161 177 182 178 167 171 171 187 181 156 165 154 153 151 150 154 149 151 152 145 135 138 144 157 168 134 83 70 72 58 45 38 19 358 353 348 340 324 322 315 176 160 192 207 208 217 223 225 223 256 251 206 188 199 197 191 226 235 208 182 190 202 210 196 201 219 228 225 221 238 231 242 241 225 226 194 161 157 152 155 155 136 128 126 132 109 98
172 174 170 177 176 164 155 151 163 159 150 145 149 159 154 150 150 160 161 142 146 160 152 126 127 117 94 80 69 60 61 65 31 5 343 338 341 338 324 23 348 26 19 311 262 257 247 237 232 231 221 212 187 179 170 158 156 174 201 196 195 224 266 296 227 231 230 233 213 221 231 233 236 232 211 189 186 173 158 157 153 144 143 142 138 115 95
144 128 133 143 150 147 146 153 159 162 158 159 166 166 167 171 162 150 151 155 146 127 128 127 124 94 73 75 63 54 67 77 84 70 24 7 342 354 29 45 46 15 353 328 287 259 273 277 265 252 214 153 159 163 148 143 148 146 154 140 146 153 193 229 243 255 264 282 273 243 225 223 218 209 203 200 189 166 160 157 160 161 156 154 143 126 112
159 154 161 163 164 157 156 161 164 163 164 161 154 150 153 162 157 149 128 119 122 130 129 116 85 84 90 96 114 103 87 98 96 80 43 0 11 36 40 32 43 29 4 293 279 325 327 306 328 351 20 74 28 16 239 154 137 156 154 161 164 178 186 208 231 242 263 257 244 251 254 252 238 226 205 187 192 184 164 162 164 158 159 153 149 143 135
176 160 161 165 166 165 172 176 169 151 129 121 120 145 154 147 140 128 125 121 118 119 108 100 115 119 111 103 90 94 93 77 83 59 29 26 33 63 29 34 356 3 8 279 274 311 299 7 81 92 107 133 155 174 201 175 167 165 168 182 189 193 197 193 197 220 232 240 239 229 227 225 231 236 224 212 201 187 176 166 160 160 158 150 145 141 134
134 127 145 148 149 152 144 133 139 149 149 147 143 133 137 131 130 119 115 126 135 117 98 106 104 91 93 100 103 89 77 85 107 72 36 3 10 98 104 262 227 214 223 272 315 294 288 56 91 85 100 231 223 215 253 252 175 169 194 201 215 218 230 232 232 230 225 225 229 234 224 228 223 227 234 240 231 154 142 150 154 151 154 151 142 137 136
155 158 161 146 146 149 143 152 158 159 159 149 146 150 154 132 131 124 125 114 105 120 123 126 114 121 129 136 145 169 210 251 264 52 341 338 55 43 338 311 279 278 274 301 314 330 351 48 84 98 202 212 205 218 220 226 219 184 196 202 209 217 222 224 220 227 232 220 215 177 128 133 137 115 84 74 71 110 112 107 114 124 129 127 127 132 132
162 156 158 153 152 153 151 149 154 157 146 142 134 137 142 138 137 126 136 144 165 122 127 130 128 148 178 182 186 203 227 244 241 244 233 76 1 9 280 275 276 280 290 275 300 342 345 357 10 358 306 324 311 303 316 309 326 128 203 234 239 233 227 214 206 214 209 204 185 153 165 164 147 133 138 127 104 82 98 108 110 110 119 119 112 112 116
163 154 154 152 152 156 153 146 135 131 139 145 143 141 145 143 138 143 151 137 132 128 127 146 155 166 196 194 192 199 270 275 287 284 193 210 255 231 253 274 251 246 276 313 12 2 10 6 354 346 333 314 305 306 307 270 53 114 107 132 169 189 196 204 198 183 175 153 143 139 148 141 136 136 136 136 135 137 137 121 111 125 144 150 153 154 153
156 158 158 158 155 150 145 149 153 150 146 152 150 147 145 134 124 128 131 134 135 137 136 150 141 136 139 144 160 192 260 304 315 337 342 286 236 204 199 238 263 285 312 19 23 17 350 337 324 300 326 324 319 324 328 311 155 143 155 193 202 212 213 231 241 244 185 169 160 152 155 160 159 156 152 151 161 157 149 162 161 166 174 174 161 160 144
159 157 157 155 157 155 146 141 136 136 141 159 158 144 138 136 140 141 143 143 145 151 148 164 163 180 194 180 158 214 276 277 302 321 39 331 340 306 225 231 261 270 346 46 23 14 344 330 312 323 328 336 340 345 11 46 77 138 173 213 234 245 242 252 252 243 240 227 195 187 183 185 190 196 183 177 185 209 216 202 201 180 148 109 106 111 122
164 163 162 160 152 145 150 151 155 158 153 138 136 137 138 140 148 148 143 148 157 175 172 175 183 196 205 195 206 210 214 208 202 158 123 309 320 289 275 237 158 73 77 83 63 22 321 297 319 338 351 11 31 47 59 52 61 49 276 232 218 216 216 208 206 214 212 208 201 185 183 191 198 205 216 228 224 202 189 169 149 134 129 140 139 138 141
163 160 152 146 153 161 159 146 130 120 124 127 125 134 145 147 151 156 154 154 162 176 189 191 196 213 207 211 225 237 272 329 291 222 213 181 184 226 207 146 170 126 104 92 68 31 315 0 36 47 53 64 61 59 52 59 64 65 68 66 70 95 121 172 157 159 165 163 136 148 184 196 200 217 214 200 179 152 146 132 122 118 118 121 125 124 123
154 153 157 150 140 135 130 129 131 126 124 128 140 164 176 159 156 159 171 174 178 193 197 197 207 218 209 193 186 189 226 334 340 336 327 257 217 149 145 131 117 115 108 117 109 12 340 9 35 52 59 64 66 63 55 56 61 78 85 89 80 95 96 85 93 94 66 69 66 65 156 179 194 185 155 139 133 133 129 123 123 127 128 129 132 135 137
156 154 150 144 138 137 130 131 132 140 150 161 165 167 168 163 169 187 191 183 193 193 198 211 225 238 232 227 221 203 184 156 166 267 271 136 113 118 103 99 116 122 111 71 63 39 54 57 61 65 66 61 59 54 52 54 55 46 48 54 70 72 94 94 90 117 195 159 117 90 92 92 105 125 136 142 146 140 132 129 126 127 134 138 145 147 147
152 146 141 138 138 142 141 143 144 149 163 162 153 170 167 164 173 181 185 193 192 210 219 224 227 246 231 215 211 221 207 174 151 199 228 189 168 156 169 136 126 120 108 121 85 331 89 83 80 80 74 66 56 57 61 68 82 93 103 106 84 152 86 95 162 350 110 254 211 148 144 143 144 135 130 129 126 129 132 136 140 140 142 141 139 150 159
137 134 141 150 154 155 153 149 155 163 161 155 164 163 152 140 150 197 200 189 204 206 221 273 263 249 233 224 199 174 155 151 128 120 136 172 174 155 146 138 148 172 162 154 172 222 325 93 74 90 90 79 61 64 76 92 88 98 137 177 163 241 237 281 286 356 132 58 79 161 149 149 149 138 127 123 120 120 126 135 141 148 147 152 168 174 180
157 162 167 166 163 165 160 152 155 152 156 161 158 148 149 158 178 190 193 194 160 161 234 262 274 261 173 142 159 150 134 137 143 150 155 171 173 177 174 173 177 186 192 178 185 204 227 86 271 15 57 51 34 49 16 9 137 272 221 53 342 351 341 4 358 345 329 55 98 46 90 123 117 116 127 137 138 140 146 152 159 165 172 178 178 185 187
138 120 98 96 83 81 102 141 149 145 152 147 143 149 163 174 177 189 209 191 163 181 173 158 211 274 173 159 151 153 155 158 157 168 172 166 171 185 200 181 174 205 200 196 205 223 214 229 261 249 192 151 274 337 318 302 235 194 217 237 213 174 340 335 344 353 330 288 176 172 167 162 147 141 151 155 159 163 173 177 177 180 186 186 188 187 192